Location: Seven Kings
(51.5667°N, 0.1000°E)
Time: 01:41:29
(UTC+00:00)

Geosat FO - Pass Details

Date: 29 October 2020
Orbit: 446 x 678 km, 108.0° (Epoch: 24 November)

Event Time Altitude Azimuth Distance (km) Brightness Sun altitude
Exits shadow 18:40:25 62° 70° (ENE) 553 4.5 -19.6°
Maximum altitude 18:40:33 63° 56° (NE) 549 4.5 -19.6°
Drops below altitude 10° 18:43:59 10° 335° (NNW) 1,640 7.6 -20.2°
Sets 18:45:58 0° 332° (NNW) 2,499 8.6 -20.5°
